When you browse on this site, cookies collect data to enhance your experience and personalize the content and advertising you see.
Visit our Privacy Policy to learn more. By continuing to use the site, you agree to this use of cookies and data.
  • Em Portugal
  • Lista de países
  • Para 7 dias
  • Temperatura da água
  • Mapas de satélite
  • Mapa do tempo
  • Widgets de tempo
  • user-avatar
    Iniciar Sessão

    Previsão horária em Nagoia

    Hoje, 18 Abril, Quinta-feira

    Tempo Temperatura Precipitação Vento Pressão Humidade
    00:00 +13°C° 0.1 mm 1 m/s 748 mmHg 83%
    01:00 +13°C° 0 mm 1 m/s 748 mmHg 84%
    02:00 +12°C° 0 mm 1 m/s 748 mmHg 84%
    03:00 +12°C° 0 mm 1 m/s 747 mmHg 85%
    04:00 +12°C° 0 mm 1 m/s 748 mmHg 84%
    05:00 +12°C° 0 mm 1 m/s 748 mmHg 83%
    06:00 +12°C° 0 mm 1 m/s 748 mmHg 82%
    07:00 +14°C° 0 mm 1 m/s 749 mmHg 73%
    08:00 +16°C° 0 mm 1 m/s 749 mmHg 64%
    09:00 +17°C° 0 mm 0 m/s 749 mmHg 56%
    10:00 +21°C° 0 mm 1 m/s 749 mmHg 49%
    11:00 +22°C° 0 mm 1 m/s 749 mmHg 42%
    12:00 +24°C° 0 mm 1 m/s 749 mmHg 35%
    13:00 +24°C° 0 mm 1 m/s 749 mmHg 33%
    14:00 +25°C° 0 mm 2 m/s 748 mmHg 30%
    15:00 +25°C° 0 mm 2 m/s 748 mmHg 28%
    16:00 +24°C° 0 mm 2 m/s 748 mmHg 32%
    17:00 +23°C° 0 mm 2 m/s 748 mmHg 35%
    18:00 +21°C° 0 mm 3 m/s 748 mmHg 38%
    19:00 +20°C° 0 mm 2 m/s 748 mmHg 42%
    20:00 +19°C° 0 mm 2 m/s 749 mmHg 46%
    21:00 +18°C° 0 mm 2 m/s 749 mmHg 49%
    22:00 +18°C° 0 mm 1 m/s 749 mmHg 52%
    23:00 +18°C° 0 mm 1 m/s 749 mmHg 54%

    Amanhã, 19 Abril, Sexta-feira

    Tempo Temperatura Precipitação Vento Pressão Humidade
    00:00 +15°C° 0 mm 0 m/s 749 mmHg 57%
    01:00 +15°C° 0 mm 0 m/s 749 mmHg 58%
    02:00 +15°C° 0 mm 0 m/s 749 mmHg 60%
    03:00 +14°C° 0 mm 0 m/s 749 mmHg 62%
    04:00 +14°C° 0 mm 0 m/s 749 mmHg 62%
    05:00 +14°C° 0 mm 0 m/s 749 mmHg 62%
    06:00 +15°C° 0 mm 1 m/s 749 mmHg 63%
    07:00 +18°C° 0 mm 1 m/s 749 mmHg 60%
    08:00 +19°C° 0 mm 1 m/s 749 mmHg 56%
    09:00 +20°C° 0 mm 2 m/s 749 mmHg 53%
    10:00 +20°C° 0 mm 3 m/s 749 mmHg 53%
    11:00 +21°C° 0 mm 3 m/s 749 mmHg 53%
    12:00 +21°C° 0 mm 4 m/s 749 mmHg 53%
    13:00 +21°C° 0 mm 5 m/s 749 mmHg 53%
    14:00 +20°C° 0 mm 5 m/s 748 mmHg 54%
    15:00 +20°C° 0 mm 6 m/s 748 mmHg 55%
    16:00 +17°C° 0 mm 5 m/s 748 mmHg 57%
    17:00 +16°C° 0 mm 5 m/s 749 mmHg 59%
    18:00 +15°C° 0 mm 5 m/s 749 mmHg 61%
    19:00 +14°C° 0 mm 5 m/s 749 mmHg 63%
    20:00 +13°C° 0 mm 4 m/s 749 mmHg 64%
    21:00 +12°C° 0 mm 4 m/s 750 mmHg 65%
    22:00 +12°C° 0 mm 4 m/s 750 mmHg 65%
    23:00 +11°C° 0 mm 4 m/s 750 mmHg 66%

    Depois de amanhã, 20 Abril, Sábado

    Tempo Temperatura Precipitação Vento Pressão Humidade
    00:00 +11°C° 0 mm 4 m/s 750 mmHg 66%
    01:00 +10°C° 0 mm 4 m/s 751 mmHg 67%
    02:00 +10°C° 0 mm 3 m/s 751 mmHg 67%
    03:00 +9°C° 0 mm 3 m/s 751 mmHg 68%
    04:00 +9°C° 0 mm 3 m/s 751 mmHg 68%
    05:00 +9°C° 0 mm 3 m/s 751 mmHg 68%
    06:00 +9°C° 0 mm 3 m/s 751 mmHg 68%
    07:00 +12°C° 0 mm 2 m/s 751 mmHg 57%
    08:00 +13°C° 0 mm 2 m/s 752 mmHg 47%
    09:00 +15°C° 0 mm 2 m/s 752 mmHg 36%
    10:00 +18°C° 0 mm 1 m/s 752 mmHg 31%
    11:00 +20°C° 0 mm 1 m/s 751 mmHg 26%
    12:00 +22°C° 0 mm 1 m/s 751 mmHg 21%
    13:00 +21°C° 0 mm 2 m/s 751 mmHg 23%
    14:00 +23°C° 0 mm 2 m/s 750 mmHg 24%
    15:00 +22°C° 0 mm 3 m/s 750 mmHg 26%
    16:00 +21°C° 0 mm 3 m/s 750 mmHg 34%
    17:00 +20°C° 0 mm 3 m/s 750 mmHg 43%
    18:00 +18°C° 0 mm 3 m/s 750 mmHg 51%
    19:00 +18°C° 0 mm 3 m/s 750 mmHg 60%
    20:00 +17°C° 0 mm 3 m/s 751 mmHg 68%
    21:00 +16°C° 0 mm 2 m/s 751 mmHg 77%
    22:00 +16°C° 0 mm 2 m/s 751 mmHg 79%
    23:00 +15°C° 0 mm 1 m/s 751 mmHg 82%

    21 Abril, Domingo

    Tempo Temperatura Precipitação Vento Pressão Humidade
    00:00 +15°C° 0 mm 1 m/s 751 mmHg 84%
    01:00 +15°C° 0 mm 1 m/s 750 mmHg 85%
    02:00 +14°C° 0 mm 1 m/s 750 mmHg 86%
    03:00 +14°C° 0 mm 1 m/s 750 mmHg 87%
    04:00 +14°C° 0 mm 1 m/s 750 mmHg 87%
    05:00 +14°C° 0 mm 1 m/s 750 mmHg 86%
    06:00 +14°C° 0 mm 1 m/s 750 mmHg 85%
    07:00 +16°C° 0 mm 1 m/s 750 mmHg 76%
    08:00 +16°C° 0 mm 0 m/s 750 mmHg 67%
    09:00 +18°C° 0 mm 0 m/s 750 mmHg 59%
    10:00 +20°C° 0 mm 0 m/s 750 mmHg 53%
    11:00 +24°C° 0 mm 1 m/s 749 mmHg 47%
    12:00 +25°C° 0 mm 1 m/s 749 mmHg 41%
    13:00 +25°C° 0 mm 1 m/s 749 mmHg 41%
    14:00 +25°C° 0 mm 2 m/s 748 mmHg 41%
    15:00 +26°C° 0 mm 2 m/s 748 mmHg 40%
    16:00 +25°C° 0 mm 2 m/s 748 mmHg 43%
    17:00 +24°C° 0 mm 2 m/s 748 mmHg 46%
    18:00 +23°C° 0 mm 1 m/s 748 mmHg 49%
    19:00 +22°C° 0 mm 1 m/s 749 mmHg 51%
    20:00 +21°C° 0 mm 2 m/s 749 mmHg 53%
    21:00 +20°C° 0 mm 2 m/s 750 mmHg 55%
    22:00 +19°C° 0 mm 2 m/s 750 mmHg 55%
    23:00 +19°C° 0 mm 2 m/s 750 mmHg 56%

    22 Abril, Segunda-feira

    Tempo Temperatura Precipitação Vento Pressão Humidade
    00:00 +18°C° 0 mm 2 m/s 750 mmHg 57%
    01:00 +18°C° 0 mm 2 m/s 749 mmHg 59%
    02:00 +17°C° 0 mm 2 m/s 749 mmHg 61%
    03:00 +16°C° 0 mm 2 m/s 749 mmHg 63%
    04:00 +16°C° 0 mm 2 m/s 750 mmHg 64%
    05:00 +16°C° 0 mm 2 m/s 750 mmHg 65%
    06:00 +16°C° 0 mm 2 m/s 750 mmHg 66%
    07:00 +17°C° 0 mm 2 m/s 750 mmHg 61%
    08:00 +19°C° 0 mm 2 m/s 751 mmHg 55%
    09:00 +20°C° 0 mm 2 m/s 751 mmHg 49%
    10:00 +23°C° 0 mm 2 m/s 750 mmHg 45%
    11:00 +24°C° 0 mm 2 m/s 750 mmHg 40%
    12:00 +26°C° 0 mm 2 m/s 750 mmHg 35%
    13:00 +26°C° 0 mm 2 m/s 750 mmHg 34%
    14:00 +27°C° 0 mm 2 m/s 749 mmHg 32%
    15:00 +27°C° 0 mm 2 m/s 749 mmHg 30%
    16:00 +26°C° 0 mm 2 m/s 749 mmHg 35%
    17:00 +25°C° 0 mm 2 m/s 750 mmHg 39%
    18:00 +24°C° 0 mm 3 m/s 750 mmHg 43%
    19:00 +23°C° 0 mm 2 m/s 751 mmHg 50%
    20:00 +20°C° 0 mm 2 m/s 751 mmHg 56%
    21:00 +19°C° 0 mm 2 m/s 752 mmHg 62%
    22:00 +19°C° 0 mm 2 m/s 752 mmHg 65%
    23:00 +19°C° 0 mm 1 m/s 752 mmHg 68%

    23 Abril, Terça-feira

    Tempo Temperatura Precipitação Vento Pressão Humidade
    00:00 +19°C° 0 mm 1 m/s 752 mmHg 72%
    01:00 +19°C° 0 mm 1 m/s 751 mmHg 74%
    02:00 +18°C° 0 mm 1 m/s 751 mmHg 76%
    03:00 +18°C° 0 mm 1 m/s 751 mmHg 78%
    04:00 +18°C° 0 mm 1 m/s 752 mmHg 78%
    05:00 +18°C° 0 mm 1 m/s 752 mmHg 78%
    06:00 +16°C° 0 mm 0 m/s 752 mmHg 79%
    07:00 +19°C° 0 mm 1 m/s 752 mmHg 72%
    08:00 +21°C° 0 mm 1 m/s 752 mmHg 66%
    09:00 +22°C° 0 mm 1 m/s 752 mmHg 60%
    10:00 +24°C° 0 mm 1 m/s 752 mmHg 55%
    11:00 +25°C° 0 mm 2 m/s 752 mmHg 51%
    12:00 +26°C° 0 mm 2 m/s 752 mmHg 46%
    13:00 +27°C° 0 mm 2 m/s 751 mmHg 46%
    14:00 +27°C° 0 mm 3 m/s 751 mmHg 45%
    15:00 +27°C° 0 mm 3 m/s 751 mmHg 45%
    16:00 +26°C° 0 mm 3 m/s 751 mmHg 49%
    17:00 +25°C° 0 mm 3 m/s 751 mmHg 54%
    18:00 +25°C° 0 mm 3 m/s 751 mmHg 58%
    19:00 +24°C° 0 mm 2 m/s 752 mmHg 63%
    20:00 +23°C° 0 mm 2 m/s 752 mmHg 68%
    21:00 +22°C° 0 mm 1 m/s 753 mmHg 73%
    22:00 +21°C° 0 mm 1 m/s 753 mmHg 75%
    23:00 +21°C° 0 mm 1 m/s 752 mmHg 78%
    Mostrar mais